World > North America > United States > Utah

Uvada, Utah Regional Weather

Lat: 37.80N, Lon: 113.91W
Wx Zone: UTZ016Web Search
Uvada Weather Warning NWS WEATHER ALERT FOR THE UVADA, UT AREA - Issued: 306 PM MST Wed Jan 20 2021 Uvada Weather Warning  

Helpful Tip: Abbreviated, 7 Day, 14 Day Forecasts. There is a weather forecast for every taste.

Feedback
Uvada Weather Map
UTC Time: 1/21/2021, 08:34
Your Time:

Uvada, UT Regional Weather

Expires:202101210900;;249021
ASUS45 KSLC 210810
RWRUT 

UTAH REGIONAL WEATHER ROUNDUP
NATIONAL WEATHER SERVICE SALT LAKE CITY UT
100 AM MST THU JAN 21 2021


UTZ013>016-019>022-027-210900-

SOUTHERN UTAH
  
CITY           SKY/WX    TMP DP  RH WIND       PRES   REMARKS
BRYCE CANYON   CLEAR     17  14  88 SW5       30.17F WCI  10          
CEDAR CITY     CLEAR     28  21  75 S6        30.13F WCI  22          
MILFORD        CLEAR     26  22  84 S5        30.11F WCI  20          
ST GEORGE      SUNNY     45  28  51 SE7       30.14S                  
HANKSVILLE     CLEAR     25  19  80 CALM      30.20S                  
KANAB          CLEAR     34  25  69 N13       30.19F WCI  25          

$$

REGIONAL REPORTS     COLORADO/ARIZONA
  
CITY           SKY/WX    TMP DP  RH WIND       PRES   REMARKS
CRAIG, CO      PTCLDY     7   4  87 CALM      30.14F                  
GRAND JUNCTION CLEAR     27  19  72 NE6       30.17F WCI  20          
RIFLE, CO      CLOUDY    25  19  78 CALM      30.17F                  
MONTROSE, CO   CLEAR     25  19  78 E5        30.20F WCI  19          
CORTEZ, CO     CLEAR     18  15  88 E5        30.20F WCI  11          
COLORADO CITY    N/A     30  23  74 SE5       30.18S WCI  25          
PAGE, AZ       CLEAR     36  28  73 E5        30.17F WCI  32          
GRAND CANYON   MOCLDY    23  21  92 CALM      30.17F                  
KINGMAN, AZ    CLEAR     42  33  70 NE6       30.10F                  
FLAGSTAFF, AZ  CLOUDY    24  22  91 CALM      30.16F                  

$$

REGIONAL REPORTS    NEVADA/IDAHO/WYOMING
  
CITY           SKY/WX    TMP DP  RH WIND       PRES   REMARKS
LAS VEGAS, NV  PTCLDY    49  30  48 SW5       30.09F                  
ELY, NY        CLEAR     19  13  77 S9        30.14F WCI   8          
ELKO, NV       CLEAR     20  15  81 CALM      30.11S                  
POCATELLO, ID  MOCLDY    20  15  81 N5        30.10F WCI  13          
BURLEY, ID     PTCLDY    25  19  78 CALM      30.08F                  
EVANSTON, WY   PTCLDY    26  17  68 S8        30.09F WCI  18          
ROCK SPRINGS,  CLEAR     24  15  68 W15       30.08S WCI  11          
KEMMERER, WY   CLEAR     16  10  79 NW13      30.09S WCI   2          

$$
  

SKY/WX - Weather  TMP - Temperature  DP - Dew Point  RH - Relative Humidity
WIND - Wind Direction/Speed PRES - Barometric Pressure VSB - Visibility
WCI - Wind Chill Index E13G22 Wind - East Wind 13 mph/Gusts of 22 mph